Simultaneous Nadir Overpasses (SNOs) Predictions

Prediction of SNOs between GOES-16 and NOAA-21 Satellite Orbit:

Table of predicted SNOs for the next 14.0 days since TLE Epoch: 5/2/2025
Index Date Time (GOES-16) GOES-16 Lat,Lon NOAA-21 Lat,Lon Distance(km) Time Diff (sec)
1 05/03/2025 19:10:58 0.03, -87.07 0.06, -86.82 29.05 80
2 05/05/2025 07:35:32 -0.02, -87.85 0.94, -92.14 488.55 80
3 05/06/2025 07:14:10 -0.03, -88.36 -0.19, -87.64 82.81 80
4 05/07/2025 19:38:50 0.02, -89.17 -0.84, -92.98 434.82 80
5 05/08/2025 19:17:29 0.02, -89.68 0.30, -88.48 136.99 80
6 05/10/2025 07:42:01 -0.02, -90.47 0.75, -93.79 379.38 80
7 05/11/2025 07:20:40 -0.02, -90.98 -0.38, -89.29 192.46 80
8 05/12/2025 19:45:20 0.02, -91.79 -0.63, -94.64 324.89 80
9 05/13/2025 19:23:59 0.02, -92.31 0.51, -90.14 247.07 80
10 05/15/2025 07:48:31 -0.02, -93.09 0.53, -95.45 269.20 80
11 05/16/2025 07:27:09 -0.02, -93.61 -0.61, -90.95 302.70 80
